Year,Month,Day,Hour,Minute,Value (Times are PST for temperature in C)
2010,07,15,00,00,15.60
2010,07,15,00,05,15.70
2010,07,15,00,06,15.70
2010,07,15,00,07,15.80
2010,07,15,00,08,15.80
2010,07,15,00,09,15.80
2010,07,15,00,10,15.80
2010,07,15,00,11,15.90
2010,07,15,00,12,16.00
2010,07,15,00,13,16.10
2010,07,15,00,14,16.10
2010,07,15,00,15,16.10
2010,07,15,00,16,16.10
2010,07,15,00,17,16.20
2010,07,15,00,18,16.20
2010,07,15,00,19,16.20
2010,07,15,00,20,16.20
2010,07,15,00,21,16.20
2010,07,15,00,22,16.20
2010,07,15,00,23,16.30
2010,07,15,00,24,16.30
2010,07,15,00,25,16.30
2010,07,15,00,26,16.30
2010,07,15,00,27,16.30
2010,07,15,00,28,16.30
2010,07,15,00,29,16.30
2010,07,15,00,30,16.30
2010,07,15,00,31,16.30
2010,07,15,00,32,16.30
2010,07,15,00,33,16.30
2010,07,15,00,34,16.30
2010,07,15,00,35,16.30
2010,07,15,00,36,16.30
2010,07,15,00,37,16.40
2010,07,15,00,38,16.40
2010,07,15,00,39,16.40
2010,07,15,00,40,16.40
2010,07,15,00,41,16.40
2010,07,15,00,42,16.40
2010,07,15,00,43,16.40
2010,07,15,00,44,16.40
2010,07,15,00,45,16.40
2010,07,15,00,46,16.40
2010,07,15,00,47,16.40
2010,07,15,00,48,16.40
2010,07,15,00,49,16.40
2010,07,15,00,50,16.40
2010,07,15,00,51,16.30
2010,07,15,00,52,16.30
2010,07,15,00,53,16.30
2010,07,15,00,54,16.30
2010,07,15,00,55,16.20
2010,07,15,00,56,16.20
2010,07,15,00,57,16.20
2010,07,15,00,58,16.20
2010,07,15,00,59,16.10
2010,07,15,01,00,16.10
2010,07,15,01,01,16.10
2010,07,15,01,02,16.00
2010,07,15,01,03,16.00
2010,07,15,01,04,16.00
2010,07,15,01,05,16.00
2010,07,15,01,06,16.00
2010,07,15,01,07,15.90
2010,07,15,01,08,15.90
2010,07,15,01,09,15.90
2010,07,15,01,10,15.90
2010,07,15,01,11,15.90
2010,07,15,01,12,15.90
2010,07,15,01,13,15.80
2010,07,15,01,14,15.80
2010,07,15,01,15,15.70
2010,07,15,01,16,15.70
2010,07,15,01,17,15.70
2010,07,15,01,18,15.70
2010,07,15,01,19,15.70
2010,07,15,01,20,15.70
2010,07,15,01,21,15.70
2010,07,15,01,22,15.70
2010,07,15,01,23,15.70
2010,07,15,01,24,15.70
2010,07,15,01,25,15.70
2010,07,15,01,26,15.70
2010,07,15,01,27,15.60
2010,07,15,01,28,15.60
2010,07,15,01,29,15.60
2010,07,15,01,30,15.50
2010,07,15,01,31,15.50
2010,07,15,01,32,15.40
2010,07,15,01,33,15.40
2010,07,15,01,34,15.40
2010,07,15,01,35,15.30
2010,07,15,01,36,15.30
2010,07,15,01,37,15.30
2010,07,15,01,38,15.30
2010,07,15,01,39,15.30
2010,07,15,01,40,15.30
2010,07,15,01,41,15.30
2010,07,15,01,42,15.30
2010,07,15,01,43,15.30
2010,07,15,01,44,15.30
2010,07,15,01,45,15.20
2010,07,15,01,46,15.20
2010,07,15,01,47,15.20
2010,07,15,01,48,15.10
2010,07,15,01,49,15.10
2010,07,15,01,50,15.10
2010,07,15,01,51,15.00
2010,07,15,01,52,15.00
2010,07,15,01,53,15.00
2010,07,15,01,54,14.90
2010,07,15,01,55,14.90
2010,07,15,01,56,14.90
2010,07,15,01,57,14.80
2010,07,15,01,58,14.80
2010,07,15,01,59,14.80
2010,07,15,02,00,14.80
2010,07,15,02,01,14.70
2010,07,15,02,02,14.70
2010,07,15,02,03,14.70
2010,07,15,02,04,14.70
2010,07,15,02,05,14.70
2010,07,15,02,06,14.70
2010,07,15,02,07,14.60
2010,07,15,02,08,14.60
2010,07,15,02,09,14.60
2010,07,15,02,10,14.60
2010,07,15,02,11,14.50
2010,07,15,02,12,14.50
2010,07,15,02,13,14.50
2010,07,15,02,14,14.40
2010,07,15,02,15,14.40
2010,07,15,02,16,14.40
2010,07,15,02,17,14.40
2010,07,15,02,18,14.30
2010,07,15,02,19,14.30
2010,07,15,02,20,14.30
2010,07,15,02,21,14.30
2010,07,15,02,22,14.30
2010,07,15,02,23,14.30
2010,07,15,02,24,14.30
2010,07,15,02,25,14.30
2010,07,15,02,26,14.30
2010,07,15,02,27,14.30
2010,07,15,02,28,14.30
2010,07,15,02,29,14.30
2010,07,15,02,30,14.30
2010,07,15,02,31,14.30
2010,07,15,02,32,14.30
2010,07,15,02,33,14.30
2010,07,15,02,34,14.30
2010,07,15,02,35,14.30
2010,07,15,02,36,14.30
2010,07,15,02,37,14.30
2010,07,15,02,38,14.30
2010,07,15,02,39,14.30
2010,07,15,02,40,14.30
2010,07,15,02,41,14.30
2010,07,15,02,42,14.30
2010,07,15,02,43,14.20
2010,07,15,02,44,14.20
2010,07,15,02,45,14.20
2010,07,15,02,46,14.20
2010,07,15,02,47,14.20
2010,07,15,02,48,14.20
2010,07,15,02,49,14.20
2010,07,15,02,50,14.20
2010,07,15,02,51,14.20
2010,07,15,02,52,14.30
2010,07,15,02,53,14.30
2010,07,15,02,54,14.20
2010,07,15,02,55,14.20
2010,07,15,02,56,14.20
2010,07,15,02,57,14.20
2010,07,15,02,58,14.20
2010,07,15,02,59,14.20
2010,07,15,03,00,14.20
2010,07,15,03,01,14.20
2010,07,15,03,02,14.20
2010,07,15,03,03,14.20
2010,07,15,03,04,14.20
2010,07,15,03,05,14.20
2010,07,15,03,06,14.10
2010,07,15,03,07,14.10
2010,07,15,03,08,14.10
2010,07,15,03,09,14.10
2010,07,15,03,10,14.10
2010,07,15,03,11,14.10
2010,07,15,03,12,14.10
2010,07,15,03,13,14.00
2010,07,15,03,14,14.00
2010,07,15,03,15,14.00
2010,07,15,03,16,14.00
2010,07,15,03,17,14.10
2010,07,15,03,18,14.10
2010,07,15,03,19,14.10
2010,07,15,03,20,14.10
2010,07,15,03,21,14.10
2010,07,15,03,22,14.20
2010,07,15,03,23,14.20
2010,07,15,03,24,14.30
2010,07,15,03,25,14.30
2010,07,15,03,26,14.40
2010,07,15,03,27,14.40
2010,07,15,03,28,14.40
2010,07,15,03,29,14.50
2010,07,15,03,30,14.50
2010,07,15,03,31,14.50
2010,07,15,03,32,14.50
2010,07,15,03,33,14.40
2010,07,15,03,34,14.40
2010,07,15,03,35,14.40
2010,07,15,03,36,14.40
2010,07,15,03,37,14.40
2010,07,15,03,38,14.40
2010,07,15,03,39,14.40
2010,07,15,03,40,14.40
2010,07,15,03,41,14.40
2010,07,15,03,42,14.40
2010,07,15,03,43,14.40
2010,07,15,03,44,14.40
2010,07,15,03,45,14.40
2010,07,15,03,46,14.40
2010,07,15,03,47,14.40
2010,07,15,03,48,14.40
2010,07,15,03,49,14.30
2010,07,15,03,50,14.30
2010,07,15,03,51,14.30
2010,07,15,03,52,14.30
2010,07,15,03,53,14.20
2010,07,15,03,54,14.20
2010,07,15,03,55,14.20
2010,07,15,03,56,14.20
2010,07,15,03,57,14.20
2010,07,15,03,58,14.20
2010,07,15,03,59,14.20
2010,07,15,04,00,14.20
2010,07,15,04,01,14.20
2010,07,15,04,02,14.20
2010,07,15,04,03,14.20
2010,07,15,04,04,14.20
2010,07,15,04,05,14.20
2010,07,15,04,06,14.20
2010,07,15,04,07,14.20
2010,07,15,04,08,14.10
2010,07,15,04,09,14.10
2010,07,15,04,10,14.10
2010,07,15,04,11,14.10
2010,07,15,04,12,14.10
2010,07,15,04,13,14.10
2010,07,15,04,14,14.10
2010,07,15,04,15,14.10
2010,07,15,04,16,14.20
2010,07,15,04,17,14.20
2010,07,15,04,18,14.10
2010,07,15,04,19,14.10
2010,07,15,04,20,14.10
2010,07,15,04,21,14.10
2010,07,15,04,22,14.10
2010,07,15,04,23,14.10
2010,07,15,04,24,14.10
2010,07,15,04,25,14.00
2010,07,15,04,26,14.00
2010,07,15,04,27,14.00
2010,07,15,04,28,13.90
2010,07,15,04,29,13.90
2010,07,15,04,30,13.90
2010,07,15,04,31,13.90
2010,07,15,04,32,13.90
2010,07,15,04,33,13.80
2010,07,15,04,34,13.80
2010,07,15,04,35,13.80
2010,07,15,04,36,13.80
2010,07,15,04,37,13.80
2010,07,15,04,38,13.80
2010,07,15,04,39,13.70
2010,07,15,04,40,13.70
2010,07,15,04,41,13.70
2010,07,15,04,42,13.70
2010,07,15,04,43,13.70
2010,07,15,04,44,13.70
2010,07,15,04,45,13.60
2010,07,15,04,46,13.60
2010,07,15,04,47,13.60
2010,07,15,04,48,13.50
2010,07,15,04,49,13.50
2010,07,15,04,50,13.50
2010,07,15,04,51,13.50
2010,07,15,04,52,13.40
2010,07,15,04,53,13.40
2010,07,15,04,54,13.40
2010,07,15,04,55,13.30
2010,07,15,04,56,13.30
2010,07,15,04,57,13.30
2010,07,15,04,58,13.20
2010,07,15,04,59,13.20
2010,07,15,05,00,13.10
2010,07,15,05,01,13.10
2010,07,15,05,02,13.10
2010,07,15,05,03,13.10
2010,07,15,05,04,13.10
2010,07,15,05,05,13.00
2010,07,15,05,06,13.00
2010,07,15,05,07,13.00
2010,07,15,05,08,12.90
2010,07,15,05,09,12.90
2010,07,15,05,10,12.90
2010,07,15,05,11,12.90
2010,07,15,05,12,12.90
2010,07,15,05,13,12.90
2010,07,15,05,14,12.90
2010,07,15,05,15,12.90
2010,07,15,05,16,12.90
2010,07,15,05,17,12.90
2010,07,15,05,18,12.90
2010,07,15,05,19,12.90
2010,07,15,05,20,12.90
2010,07,15,05,21,12.90
2010,07,15,05,22,12.80
2010,07,15,05,23,12.80
2010,07,15,05,24,12.80
2010,07,15,05,25,12.80
2010,07,15,05,26,12.80
2010,07,15,05,27,12.80
2010,07,15,05,28,12.80
2010,07,15,05,29,12.80
2010,07,15,05,30,12.80
2010,07,15,05,31,12.80
2010,07,15,05,32,12.80
2010,07,15,05,33,12.80
2010,07,15,05,34,12.70
2010,07,15,05,35,12.70
2010,07,15,05,36,12.70
2010,07,15,05,37,12.70
2010,07,15,05,38,12.70
2010,07,15,05,39,12.70
2010,07,15,05,40,12.60
2010,07,15,05,41,12.60
2010,07,15,05,42,12.60
2010,07,15,05,43,12.60
2010,07,15,05,44,12.60
2010,07,15,05,45,12.60
2010,07,15,05,46,12.60
2010,07,15,05,47,12.50
2010,07,15,05,48,12.50
2010,07,15,05,49,12.50
2010,07,15,05,50,12.50
2010,07,15,05,51,12.50
2010,07,15,05,52,12.50
2010,07,15,05,53,12.60
2010,07,15,05,54,12.60
2010,07,15,05,55,12.60
2010,07,15,05,56,12.60
2010,07,15,05,57,12.60
2010,07,15,05,58,12.70
2010,07,15,05,59,12.70
2010,07,15,06,00,12.70
2010,07,15,06,01,12.70
2010,07,15,06,02,12.70
2010,07,15,06,03,12.80
2010,07,15,06,04,12.80
2010,07,15,06,05,12.80
2010,07,15,06,06,12.80
2010,07,15,06,07,12.80
2010,07,15,06,08,12.80
2010,07,15,06,09,12.80
2010,07,15,06,10,12.90
2010,07,15,06,11,12.90
2010,07,15,06,12,12.90
2010,07,15,06,13,12.90
2010,07,15,06,14,12.90
2010,07,15,06,15,13.00
2010,07,15,06,16,13.00
2010,07,15,06,17,13.00
2010,07,15,06,18,13.10
2010,07,15,06,19,13.10
2010,07,15,06,20,13.20
2010,07,15,06,21,13.20
2010,07,15,06,22,13.20
2010,07,15,06,23,13.30
2010,07,15,06,24,13.30
2010,07,15,06,25,13.30
2010,07,15,06,26,13.40
2010,07,15,06,27,13.40
2010,07,15,06,28,13.50
2010,07,15,06,29,13.50
2010,07,15,06,30,13.60
2010,07,15,06,31,13.70
2010,07,15,06,32,13.70
2010,07,15,06,33,13.70
2010,07,15,06,34,13.80
2010,07,15,06,35,13.80
2010,07,15,06,36,13.90
2010,07,15,06,37,13.90
2010,07,15,06,38,13.90
2010,07,15,06,39,14.00
2010,07,15,06,40,14.00
2010,07,15,06,41,14.10
2010,07,15,06,42,14.10
2010,07,15,06,43,14.10
2010,07,15,06,44,14.10
2010,07,15,06,45,14.20
2010,07,15,06,46,14.20
2010,07,15,06,47,14.30
2010,07,15,06,48,14.30
2010,07,15,06,49,14.30
2010,07,15,06,50,14.40
2010,07,15,06,51,14.40
2010,07,15,06,52,14.40
2010,07,15,06,53,14.40
2010,07,15,06,54,14.50
2010,07,15,06,55,14.50
2010,07,15,06,56,14.50
2010,07,15,06,57,14.60
2010,07,15,06,58,14.60
2010,07,15,06,59,14.60
2010,07,15,07,00,14.60
2010,07,15,07,01,14.60
2010,07,15,07,02,14.70
2010,07,15,07,03,14.70
2010,07,15,07,04,14.70
2010,07,15,07,05,14.70
2010,07,15,07,06,14.80
2010,07,15,07,07,14.80
2010,07,15,07,08,14.80
2010,07,15,07,09,14.80
2010,07,15,07,10,14.90
2010,07,15,07,11,14.90
2010,07,15,07,12,14.90
2010,07,15,07,13,14.90
2010,07,15,07,14,14.90
2010,07,15,07,15,14.90
2010,07,15,07,16,14.90
2010,07,15,07,17,15.00
2010,07,15,07,18,15.00
2010,07,15,07,19,15.00
2010,07,15,07,20,15.00
2010,07,15,07,21,15.00
2010,07,15,07,22,14.90
2010,07,15,07,23,14.90
2010,07,15,07,24,14.90
2010,07,15,07,25,14.90
2010,07,15,07,26,14.90
2010,07,15,07,27,14.90
2010,07,15,07,28,14.90
2010,07,15,07,29,14.90
2010,07,15,07,30,14.90
2010,07,15,07,31,14.90
2010,07,15,07,32,14.90
2010,07,15,07,33,14.90
2010,07,15,07,34,14.90
2010,07,15,07,35,14.90
2010,07,15,07,36,14.90
2010,07,15,07,37,14.90
2010,07,15,07,38,15.00
2010,07,15,07,39,15.00
2010,07,15,07,40,15.00
2010,07,15,07,41,15.10
2010,07,15,07,42,15.10
2010,07,15,07,43,15.10
2010,07,15,07,44,15.10
2010,07,15,07,45,15.10
2010,07,15,07,46,15.10
2010,07,15,07,47,15.10
2010,07,15,07,48,15.10
2010,07,15,07,49,15.10
2010,07,15,07,50,15.10
2010,07,15,07,51,15.10
2010,07,15,07,52,15.20
2010,07,15,07,53,15.30
2010,07,15,07,54,15.30
2010,07,15,07,55,15.30
2010,07,15,07,56,15.30
2010,07,15,07,57,15.20
2010,07,15,07,58,15.20
2010,07,15,07,59,15.20
2010,07,15,08,00,15.20
2010,07,15,08,01,15.20
2010,07,15,08,02,15.20
2010,07,15,08,03,15.20
2010,07,15,08,04,15.20
2010,07,15,08,05,15.20
2010,07,15,08,06,15.20
2010,07,15,08,07,15.20
2010,07,15,08,08,15.20
2010,07,15,08,09,15.20
2010,07,15,08,10,15.30
2010,07,15,08,11,15.30
2010,07,15,08,12,15.30
2010,07,15,08,13,15.30
2010,07,15,08,14,15.30
2010,07,15,08,15,15.30
2010,07,15,08,16,15.30
2010,07,15,08,17,15.30
2010,07,15,08,18,15.40
2010,07,15,08,19,15.40
2010,07,15,08,20,15.40
2010,07,15,08,21,15.40
2010,07,15,08,22,15.40
2010,07,15,08,23,15.40
2010,07,15,08,24,15.50
2010,07,15,08,25,15.50
2010,07,15,08,26,15.60
2010,07,15,08,27,15.60
2010,07,15,08,28,15.60
2010,07,15,08,29,15.60
2010,07,15,08,30,15.60
2010,07,15,08,31,15.60
2010,07,15,08,32,15.60
2010,07,15,08,33,15.70
2010,07,15,08,34,15.70
2010,07,15,08,35,15.70
2010,07,15,08,36,15.70
2010,07,15,08,37,15.80
2010,07,15,08,38,15.80
2010,07,15,08,39,15.70
2010,07,15,08,40,15.70
2010,07,15,08,41,15.70
2010,07,15,08,42,15.80
2010,07,15,08,43,15.80
2010,07,15,08,44,15.80
2010,07,15,08,45,15.80
2010,07,15,08,46,15.70
2010,07,15,08,47,15.60
2010,07,15,08,48,15.60
2010,07,15,08,49,15.60
2010,07,15,08,50,15.60
2010,07,15,08,51,15.60
2010,07,15,08,52,15.60
2010,07,15,08,53,15.60
2010,07,15,08,54,15.70
2010,07,15,08,55,15.70
2010,07,15,08,56,15.70
2010,07,15,08,57,15.60
2010,07,15,08,58,15.60
2010,07,15,08,59,15.60
2010,07,15,09,00,15.50
2010,07,15,09,01,15.60
2010,07,15,09,02,15.60
2010,07,15,09,03,15.60
2010,07,15,09,04,15.70
2010,07,15,09,05,15.70
2010,07,15,09,06,15.70
2010,07,15,09,07,15.70
2010,07,15,09,08,15.60
2010,07,15,09,09,15.60
2010,07,15,09,10,15.60
2010,07,15,09,11,15.60
2010,07,15,09,12,15.70
2010,07,15,09,13,15.70
2010,07,15,09,14,15.80
2010,07,15,09,15,15.80
2010,07,15,09,16,15.70
2010,07,15,09,17,15.70
2010,07,15,09,18,15.70
2010,07,15,09,19,15.70
2010,07,15,09,20,15.70
2010,07,15,09,21,15.70
2010,07,15,09,22,15.70
2010,07,15,09,23,15.70
2010,07,15,09,24,15.80
2010,07,15,09,25,15.80
2010,07,15,09,26,15.80
2010,07,15,09,27,15.80
2010,07,15,09,28,15.80
2010,07,15,09,29,15.90
2010,07,15,09,30,15.90
2010,07,15,09,31,15.90
2010,07,15,09,32,15.90
2010,07,15,09,33,15.90
2010,07,15,09,34,16.00
2010,07,15,09,35,16.00
2010,07,15,09,36,16.00
2010,07,15,09,37,16.00
2010,07,15,09,38,15.90
2010,07,15,09,39,15.90
2010,07,15,09,40,15.90
2010,07,15,09,41,16.00
2010,07,15,09,42,16.00
2010,07,15,09,43,16.00
2010,07,15,09,44,16.00
2010,07,15,09,45,16.10
2010,07,15,09,46,16.10
2010,07,15,09,47,16.10
2010,07,15,09,48,16.10
2010,07,15,09,49,16.10
2010,07,15,09,50,16.10
2010,07,15,09,51,16.10
2010,07,15,09,52,16.10
2010,07,15,09,53,16.20
2010,07,15,09,54,16.30
2010,07,15,09,55,16.40
2010,07,15,09,56,16.40
2010,07,15,09,57,16.40
2010,07,15,09,58,16.40
2010,07,15,09,59,16.40
2010,07,15,10,00,16.40
2010,07,15,10,01,16.40
2010,07,15,10,02,16.40
2010,07,15,10,03,16.30
2010,07,15,10,04,16.30
2010,07,15,10,05,16.40
2010,07,15,10,06,16.40
2010,07,15,10,07,16.40
2010,07,15,10,08,16.40
2010,07,15,10,09,16.40
2010,07,15,10,10,16.30
2010,07,15,10,11,16.40
2010,07,15,10,12,16.40
2010,07,15,10,13,16.40
2010,07,15,10,14,16.40
2010,07,15,10,15,16.40
2010,07,15,10,16,16.50
2010,07,15,10,17,16.60
2010,07,15,10,18,16.60
2010,07,15,10,19,16.60
2010,07,15,10,20,16.60
2010,07,15,10,21,16.50
2010,07,15,10,22,16.40
2010,07,15,10,23,16.30
2010,07,15,10,24,16.30
2010,07,15,10,25,16.30
2010,07,15,10,26,16.30
2010,07,15,10,27,16.40
2010,07,15,10,28,16.40
2010,07,15,10,29,16.40
2010,07,15,10,30,16.40
2010,07,15,10,31,16.40
2010,07,15,10,32,16.50
2010,07,15,10,33,16.60
2010,07,15,10,34,16.60
2010,07,15,10,35,16.70
2010,07,15,10,36,16.60
2010,07,15,10,37,16.50
2010,07,15,10,38,16.40
2010,07,15,10,39,16.40
2010,07,15,10,40,16.40
2010,07,15,10,41,16.40
2010,07,15,10,42,16.40
2010,07,15,10,43,16.50
2010,07,15,10,44,16.60
2010,07,15,10,45,16.70
2010,07,15,10,46,16.80
2010,07,15,10,47,16.90
2010,07,15,10,48,16.90
2010,07,15,10,49,16.90
2010,07,15,10,50,16.80
2010,07,15,10,51,16.80
2010,07,15,10,52,16.80
2010,07,15,10,53,16.80
2010,07,15,10,54,16.70
2010,07,15,10,55,16.60
2010,07,15,10,56,16.60
2010,07,15,10,57,16.70
2010,07,15,10,58,16.80
2010,07,15,10,59,16.90
2010,07,15,11,00,17.00
2010,07,15,11,01,17.00
2010,07,15,11,02,17.00
2010,07,15,11,03,16.90
2010,07,15,11,04,16.90
2010,07,15,11,05,17.00
2010,07,15,11,06,17.00
2010,07,15,11,07,17.00
2010,07,15,11,08,17.00
2010,07,15,11,09,16.90
2010,07,15,11,10,16.80
2010,07,15,11,11,16.70
2010,07,15,11,12,16.70
2010,07,15,11,13,16.80
2010,07,15,11,14,16.80
2010,07,15,11,15,16.80
2010,07,15,11,16,16.80
2010,07,15,11,17,16.80
2010,07,15,11,18,16.80
2010,07,15,11,19,16.80
2010,07,15,11,20,16.90
2010,07,15,11,21,16.90
2010,07,15,11,22,16.80
2010,07,15,11,23,16.80
2010,07,15,11,24,16.80
2010,07,15,11,25,16.80
2010,07,15,11,26,16.70
2010,07,15,11,27,16.70
2010,07,15,11,28,16.80
2010,07,15,11,29,16.80
2010,07,15,11,30,16.80
2010,07,15,11,31,16.80
2010,07,15,11,32,16.90
2010,07,15,11,33,16.90
2010,07,15,11,34,17.00
2010,07,15,11,35,17.10
2010,07,15,11,36,17.20
2010,07,15,11,37,17.30
2010,07,15,11,38,17.30
2010,07,15,11,39,17.30
2010,07,15,11,40,17.20
2010,07,15,11,41,17.30
2010,07,15,11,42,17.30
2010,07,15,11,43,17.40
2010,07,15,11,44,17.50
2010,07,15,11,45,17.60
2010,07,15,11,46,17.60
2010,07,15,11,47,17.50
2010,07,15,11,48,17.50
2010,07,15,11,49,17.40
2010,07,15,11,50,17.30
2010,07,15,11,51,17.30
2010,07,15,11,52,17.30
2010,07,15,11,53,17.30
2010,07,15,11,54,17.20
2010,07,15,11,55,17.20
2010,07,15,11,56,17.30
2010,07,15,11,57,17.30
2010,07,15,11,58,17.30
2010,07,15,11,59,17.30
2010,07,15,12,00,17.40
2010,07,15,12,01,17.40
2010,07,15,12,02,17.40
2010,07,15,12,03,17.50
2010,07,15,12,04,17.60
2010,07,15,12,05,17.60
2010,07,15,12,06,17.50
2010,07,15,12,07,17.50
2010,07,15,12,08,17.50
2010,07,15,12,09,17.60
2010,07,15,12,10,17.60
2010,07,15,12,11,17.70
2010,07,15,12,12,17.80
2010,07,15,12,13,17.90
2010,07,15,12,14,18.00
2010,07,15,12,15,18.10
2010,07,15,12,16,18.20
2010,07,15,12,17,18.20
2010,07,15,12,18,18.20
2010,07,15,12,19,18.20
2010,07,15,12,20,18.30
2010,07,15,12,21,18.40
2010,07,15,12,22,18.50
2010,07,15,12,23,18.70
2010,07,15,12,24,18.80
2010,07,15,12,25,18.80
2010,07,15,12,26,18.80
2010,07,15,12,27,18.90
2010,07,15,12,28,19.00
2010,07,15,12,29,19.10
2010,07,15,12,30,19.10
2010,07,15,12,31,19.00
2010,07,15,12,32,19.00
2010,07,15,12,33,18.90
2010,07,15,12,34,18.80
2010,07,15,12,35,18.90
2010,07,15,12,36,18.80
2010,07,15,12,37,18.80
2010,07,15,12,38,18.80
2010,07,15,12,39,18.80
2010,07,15,12,40,18.80
2010,07,15,12,41,18.80
2010,07,15,12,42,18.80
2010,07,15,12,43,18.90
2010,07,15,12,44,18.90
2010,07,15,12,45,19.00
2010,07,15,12,46,19.00
2010,07,15,12,47,19.00
2010,07,15,12,48,19.00
2010,07,15,12,49,19.00
2010,07,15,12,50,19.00
2010,07,15,12,51,19.00
2010,07,15,12,52,19.00
2010,07,15,12,53,19.00
2010,07,15,12,54,19.00
2010,07,15,12,55,19.00
2010,07,15,12,56,19.00
2010,07,15,12,57,18.90
2010,07,15,12,58,18.90
2010,07,15,12,59,18.90
2010,07,15,13,00,18.90
2010,07,15,13,01,19.00
2010,07,15,13,02,18.90
2010,07,15,13,03,18.90
2010,07,15,13,04,18.80
2010,07,15,13,05,18.70
2010,07,15,13,06,18.60
2010,07,15,13,07,18.70
2010,07,15,13,08,18.70
2010,07,15,13,09,18.70
2010,07,15,13,10,18.70
2010,07,15,13,11,18.80
2010,07,15,13,12,18.90
2010,07,15,13,13,19.00
2010,07,15,13,14,19.00
2010,07,15,13,15,19.00
2010,07,15,13,16,18.90
2010,07,15,13,17,18.90
2010,07,15,13,18,18.80
2010,07,15,13,19,18.70
2010,07,15,13,20,18.60
2010,07,15,13,21,18.60
2010,07,15,13,22,18.60
2010,07,15,13,23,18.60
2010,07,15,13,24,18.60
2010,07,15,13,25,18.70
2010,07,15,13,26,18.70
2010,07,15,13,27,18.70
2010,07,15,13,28,18.80
2010,07,15,13,29,18.90
2010,07,15,13,30,18.90
2010,07,15,13,31,19.00
2010,07,15,13,32,19.00
2010,07,15,13,33,19.20
2010,07,15,13,34,19.30
2010,07,15,13,35,19.30
2010,07,15,13,36,19.30
2010,07,15,13,37,19.30
2010,07,15,13,38,19.30
2010,07,15,13,39,19.40
2010,07,15,13,40,19.50
2010,07,15,13,41,19.60
2010,07,15,13,42,19.50
2010,07,15,13,43,19.40
2010,07,15,13,44,19.40
2010,07,15,13,45,19.30
2010,07,15,13,46,19.30
2010,07,15,13,47,19.30
2010,07,15,13,48,19.30
2010,07,15,13,49,19.40
2010,07,15,13,50,19.40
2010,07,15,13,51,19.40
2010,07,15,13,52,19.30
2010,07,15,13,53,19.30
2010,07,15,13,54,19.30
2010,07,15,13,55,19.40
2010,07,15,13,56,19.50
2010,07,15,13,57,19.60
2010,07,15,13,58,19.70
2010,07,15,13,59,19.60
2010,07,15,14,00,19.60
2010,07,15,14,01,19.50
2010,07,15,14,02,19.40
2010,07,15,14,03,19.40
2010,07,15,14,04,19.30
2010,07,15,14,05,19.30
2010,07,15,14,06,19.30
2010,07,15,14,07,19.30
2010,07,15,14,08,19.30
2010,07,15,14,09,19.30
2010,07,15,14,10,19.30
2010,07,15,14,11,19.30
2010,07,15,14,12,19.40
2010,07,15,14,13,19.40
2010,07,15,14,14,19.40
2010,07,15,14,15,19.40
2010,07,15,14,16,19.40
2010,07,15,14,17,19.30
2010,07,15,14,18,19.30
2010,07,15,14,19,19.30
2010,07,15,14,20,19.30
2010,07,15,14,21,19.40
2010,07,15,14,22,19.50
2010,07,15,14,23,19.60
2010,07,15,14,24,19.70
2010,07,15,14,25,19.80
2010,07,15,14,26,19.80
2010,07,15,14,27,19.70
2010,07,15,14,28,19.60
2010,07,15,14,29,19.50
2010,07,15,14,30,19.50
2010,07,15,14,31,19.60
2010,07,15,14,32,19.60
2010,07,15,14,33,19.70
2010,07,15,14,34,19.70
2010,07,15,14,35,19.70
2010,07,15,14,36,19.60
2010,07,15,14,37,19.60
2010,07,15,14,38,19.70
2010,07,15,14,39,19.90
2010,07,15,14,40,19.90
2010,07,15,14,41,20.00
2010,07,15,14,42,20.10
2010,07,15,14,43,20.10
2010,07,15,14,44,20.10
2010,07,15,14,45,20.00
2010,07,15,14,46,20.00
2010,07,15,14,47,19.90
2010,07,15,14,48,19.90
2010,07,15,14,49,19.90
2010,07,15,14,50,20.00
2010,07,15,14,51,20.00
2010,07,15,14,52,20.10
2010,07,15,14,53,20.10
2010,07,15,14,54,20.20
2010,07,15,14,55,20.20
2010,07,15,14,56,20.20
2010,07,15,14,57,20.10
2010,07,15,14,58,20.00
2010,07,15,14,59,19.90
2010,07,15,15,00,19.90
2010,07,15,15,01,19.90
2010,07,15,15,02,19.90
2010,07,15,15,03,19.90
2010,07,15,15,04,20.00
2010,07,15,15,05,20.10
2010,07,15,15,06,20.10
2010,07,15,15,07,20.20
2010,07,15,15,08,20.20
2010,07,15,15,09,20.20
2010,07,15,15,10,20.20
2010,07,15,15,11,20.20
2010,07,15,15,12,20.20
2010,07,15,15,13,20.20
2010,07,15,15,14,20.20
2010,07,15,15,15,20.30
2010,07,15,15,16,20.40
2010,07,15,15,17,20.50
2010,07,15,15,18,20.60
2010,07,15,15,19,20.60
2010,07,15,15,20,20.60
2010,07,15,15,21,20.60
2010,07,15,15,22,20.60
2010,07,15,15,23,20.60
2010,07,15,15,24,20.60
2010,07,15,15,25,20.60
2010,07,15,15,26,20.70
2010,07,15,15,27,20.70
2010,07,15,15,28,20.80
2010,07,15,15,29,20.90
2010,07,15,15,30,21.00
2010,07,15,15,31,21.00
2010,07,15,15,32,20.90
2010,07,15,15,33,20.90
2010,07,15,15,34,20.80
2010,07,15,15,35,20.70
2010,07,15,15,36,20.60
2010,07,15,15,37,20.60
2010,07,15,15,38,20.60
2010,07,15,15,39,20.70
2010,07,15,15,40,20.70
2010,07,15,15,41,20.70
2010,07,15,15,42,20.80
2010,07,15,15,43,20.90
2010,07,15,15,44,21.10
2010,07,15,15,45,21.20
2010,07,15,15,46,21.40
2010,07,15,15,47,21.50
2010,07,15,15,48,21.50
2010,07,15,15,49,21.60
2010,07,15,15,50,21.70
2010,07,15,15,51,21.70
2010,07,15,15,52,21.80
2010,07,15,15,53,21.80
2010,07,15,15,54,21.80
2010,07,15,15,55,21.70
2010,07,15,15,56,21.70
2010,07,15,15,57,21.60
2010,07,15,15,58,21.60
2010,07,15,15,59,21.60
2010,07,15,16,00,21.60
2010,07,15,16,01,21.60
2010,07,15,16,02,21.60
2010,07,15,16,03,21.60
2010,07,15,16,04,21.50
2010,07,15,16,05,21.40
2010,07,15,16,06,21.30
2010,07,15,16,07,21.40
2010,07,15,16,08,21.40
2010,07,15,16,09,21.50
2010,07,15,16,10,21.50
2010,07,15,16,11,21.50
2010,07,15,16,12,21.50
2010,07,15,16,13,21.50
2010,07,15,16,14,21.50
2010,07,15,16,15,21.40
2010,07,15,16,16,21.40
2010,07,15,16,17,21.40
2010,07,15,16,18,21.50
2010,07,15,16,19,21.50
2010,07,15,16,20,21.60
2010,07,15,16,21,21.70
2010,07,15,16,22,21.80
2010,07,15,16,23,21.80
2010,07,15,16,24,21.90
2010,07,15,16,25,21.90
2010,07,15,16,26,21.80
2010,07,15,16,27,21.60
2010,07,15,16,28,21.50
2010,07,15,16,29,21.40
2010,07,15,16,30,21.30
2010,07,15,16,31,21.30
2010,07,15,16,32,21.20
2010,07,15,16,33,21.30
2010,07,15,16,34,21.30
2010,07,15,16,35,21.40
2010,07,15,16,36,21.50
2010,07,15,16,37,21.60
2010,07,15,16,38,21.70
2010,07,15,16,39,21.80
2010,07,15,16,40,21.80
2010,07,15,16,41,21.80
2010,07,15,16,42,21.80
2010,07,15,16,43,21.70
2010,07,15,16,44,21.60
2010,07,15,16,45,21.50
2010,07,15,16,46,21.40
2010,07,15,16,47,21.40
2010,07,15,16,48,21.40
2010,07,15,16,49,21.40
2010,07,15,16,50,21.40
2010,07,15,16,51,21.40
2010,07,15,16,52,21.50
2010,07,15,16,53,21.60
2010,07,15,16,54,21.70
2010,07,15,16,55,21.80
2010,07,15,16,56,21.90
2010,07,15,16,57,22.00
2010,07,15,16,58,22.00
2010,07,15,16,59,21.90
2010,07,15,17,00,21.80
2010,07,15,17,01,21.70
2010,07,15,17,02,21.70
2010,07,15,17,03,21.70
2010,07,15,17,04,21.70
2010,07,15,17,05,21.70
2010,07,15,17,06,21.80
2010,07,15,17,07,21.70
2010,07,15,17,08,21.70
2010,07,15,17,09,21.70
2010,07,15,17,10,21.70
2010,07,15,17,11,21.80
2010,07,15,17,12,21.80
2010,07,15,17,13,21.80
2010,07,15,17,14,21.80
2010,07,15,17,15,21.80
2010,07,15,17,16,21.90
2010,07,15,17,17,21.90
2010,07,15,17,18,21.80
2010,07,15,17,19,21.70
2010,07,15,17,20,21.70
2010,07,15,17,21,21.60
2010,07,15,17,22,21.50
2010,07,15,17,23,21.50